Weather History for Covington, KY

Change the Weather History Date:

Monday, August 26, 2013

  Actual Average Record
Temperature  
Mean Temperature 75 °F 74 °F  
Max Temperature 89 °F 84 °F 98 °F (1948)
Min Temperature 61 °F 64 °F 49 °F (1946)
Degree Days  
Heating Degree Days 0 0  
Month to date heating degree days 2 0  
Since 1 June heating degree days 5 15  
Since 1 July heating degree days 4 0  
Cooling Degree Days 10 9  
Month to date cooling degree days 217 266  
Year to date cooling degree days 899 925  
Since 1 June cooling degree days 760 831  
Growing Degree Days 25 (Base 50)    
Moisture  
Dew Point 66 °F    
Average Humidity 69    
Maximum Humidity 93    
Minimum Humidity 44    
Precipitation  
Precipitation 0.00 in 0.10 in 2.55 in (1890)
Month to date precipitation 2.11 2.91  
Year to date precipitation 31.47 29.29  
Snow  
Snow 0.00 in 0.00 in 0.00 in ()
Month to date snowfall 0.0 0.0  
Since 1 June snowfall 0.0 0.0  
Since 1 July snowfall 0.0 0.0  
Snow Depth 0.00 in    
Sea Level Pressure  
Sea Level Pressure 30.18 in    
Wind  
Wind Speed 5 mph (WSW)    
Max Wind Speed 14 mph    
Max Gust Speed 20 mph    
Visibility 9 miles    
Events      
T = Trace of Precipitation, MM = Missing Value Source: NWS Daily Summary

Daily Weather History Graph

Daily Weather History Graph

Search for Another Location

Airport:

Trip Planner

Search our weather history database for the weather conditions in past years. The results will help you decide how hot, cold, wet, or windy it might be!

Date:

Astronomy

Aug. 26, 2013 Rise Set
Actual Time 7:02 AM EDT 8:17 PM EDT
Civil Twilight 6:34 AM EDT 8:45 PM EDT
Nautical Twilight 6:01 AM EDT 9:18 PM EDT
Astronomical Twilight 5:26 AM EDT 9:53 PM EDT
Moon 11:31 PM EDT (8/26) 12:59 PM EDT (8/26)
Length of Visible Light 14h 10m
Length of Day
13h 15m
Waning Gibbous, 67% of the Moon is Illuminated
Aug 26
Waning Gibbous
Aug 28
Last Quarter
Sep 5
New
Sep 12
First Quarter
Sep 19
Full

Hourly Weather History & Observations

Time (EDT) Temp. Heat Index Dew Point Humidity Pressure Visibility Wind Dir Wind Speed Gust Speed Precip Events Conditions
12:52 AM 64.0 °F - 59.0 °F 84% 30.25 in 10.0 mi Calm Calm - N/A   Partly Cloudy
1:52 AM 64.9 °F - 62.1 °F 90% 30.24 in 10.0 mi Calm Calm - N/A   Clear
2:52 AM 64.0 °F - 60.1 °F 87% 30.23 in 10.0 mi Calm Calm - N/A   Partly Cloudy
3:52 AM 62.1 °F - 60.1 °F 93% 30.21 in 10.0 mi South 5.8 mph - N/A   Clear
4:52 AM 66.9 °F - 61.0 °F 81% 30.20 in 10.0 mi SW 4.6 mph - N/A   Clear
5:52 AM 66.9 °F - 62.1 °F 84% 30.21 in 10.0 mi Calm Calm - N/A   Clear
6:52 AM 64.0 °F - 63.0 °F 96% 30.22 in 10.0 mi Calm Calm - N/A   Clear
7:52 AM 64.0 °F - 63.0 °F 96% 30.24 in 9.0 mi SSW 3.5 mph - N/A   Clear
8:52 AM 72.0 °F - 68.0 °F 87% 30.25 in 10.0 mi WSW 3.5 mph - N/A   Clear
9:52 AM 77.0 °F - 70.0 °F 79% 30.25 in 8.0 mi West 9.2 mph - N/A   Clear
10:52 AM 80.1 °F 83.6 °F 71.1 °F 74% 30.24 in 8.0 mi West 8.1 mph - N/A   Clear
11:52 AM 82.0 °F 86.3 °F 71.1 °F 69% 30.22 in 9.0 mi West 9.2 mph - N/A   Partly Cloudy
12:52 PM 86.0 °F 91.5 °F 71.1 °F 61% 30.21 in 9.0 mi West 11.5 mph - N/A   Mostly Cloudy
1:52 PM 87.1 °F 90.6 °F 68.0 °F 53% 30.19 in 10.0 mi WNW 11.5 mph - N/A   Mostly Cloudy
2:52 PM 89.1 °F 91.0 °F 64.9 °F 45% 30.17 in 10.0 mi West 8.1 mph - N/A   Mostly Cloudy
3:52 PM 89.1 °F 91.0 °F 64.9 °F 45% 30.13 in 10.0 mi West 11.5 mph - N/A   Mostly Cloudy
4:52 PM 87.1 °F 88.9 °F 64.9 °F 48% 30.11 in 10.0 mi SW 6.9 mph - N/A   Overcast
5:52 PM 84.9 °F 87.1 °F 66.0 °F 53% 30.11 in 10.0 mi WSW 4.6 mph - N/A   Overcast
6:52 PM 84.0 °F 87.0 °F 68.0 °F 58% 30.09 in 10.0 mi SSW 5.8 mph - N/A   Overcast
7:52 PM 81.0 °F 84.1 °F 69.1 °F 67% 30.09 in 9.0 mi SSW 3.5 mph - N/A   Mostly Cloudy
8:52 PM 79.0 °F - 70.0 °F 74% 30.09 in 9.0 mi SW 3.5 mph - N/A   Mostly Cloudy
9:52 PM 73.9 °F - 70.0 °F 87% 30.10 in 8.0 mi SSW 3.5 mph - N/A   Scattered Clouds
10:52 PM 77.0 °F - 70.0 °F 79% 30.10 in 8.0 mi WSW 3.5 mph - N/A   Overcast
11:52 PM 75.9 °F - 69.1 °F 79% 30.09 in 8.0 mi WSW 3.5 mph - N/A   Mostly Cloudy